Alexandria, LA

9:42 AM CDT on May 20, 2018 (GMT -0500)
Alexandria International

Weather History for KAEX - October, 2010

Change the Weather History Date:

Tuesday, October 26, 2010

  Actual Average Record
Temperature  
Mean Temperature 81 °F 64 °F  
Max Temperature 89 °F 77 °F 90 °F (1902)
Min Temperature 72 °F 51 °F 32 °F (1898)
Degree Days  
Heating Degree Days 0 4  
Month to date heating degree days 18 50  
Since 1 July heating degree days 18 53  
Cooling Degree Days 16 3  
Month to date cooling degree days 118 124  
Year to date cooling degree days 2954 2474  
Growing Degree Days 30 (Base 50)    
Moisture  
Dew Point 69 °F    
Average Humidity 69    
Maximum Humidity 87    
Minimum Humidity 51    
Precipitation  
Precipitation 0.01 in 0.10 in 3.90 in (1996)
Month to date precipitation 1.50 4.84  
Year to date precipitation 31.83 43.97  
Snow  
Snow 0.00 in - 0.00 in ()
Month to date snowfall 0.0  
Since 1 July snowfall 0.0  
Since 1 September snowfall 0.0  
Snow Depth 0.00 in    
Sea Level Pressure  
Sea Level Pressure 29.66 in    
Wind  
Wind Speed 12 mph (SSW)    
Max Wind Speed 23 mph    
Max Gust Speed 33 mph    
Visibility 10 miles    
Events Rain    
T = Trace of Precipitation, MM = Missing Value Source: NWS Daily Summary

Daily Weather History Graph

Daily Weather History Graph

Search for Another Location

Airport or City:

Astronomy

Oct. 26, 2010 Rise Set
Actual Time 7:21 AM CDT 6:26 PM CDT
Civil Twilight 6:56 AM CDT 6:51 PM CDT
Nautical Twilight 6:27 AM CDT 7:19 PM CDT
Astronomical Twilight 5:59 AM CDT 7:48 PM CDT
Moon 9:04 PM CDT (10/26) 10:47 AM CDT (10/26)
Length of Visible Light 11h 55m
Length of Day
11h 05m
Waning Gibbous, 87% of the Moon is Illuminated
Oct 26
Waning Gibbous
Oct 30
Last Quarter
Nov 5
New
Nov 13
First Quarter
Nov 21
Full

Hourly Weather History & Observations

Time (CDT) Temp. Heat Index Dew Point Humidity Pressure Visibility Wind Dir Wind Speed Gust Speed Precip Events Conditions
12:07 AM 78.8 °F - 69.8 °F 74% 29.62 in 10.0 mi South 17.3 mph 24.2 mph N/A   Overcast
12:53 AM 79.0 °F - 70.0 °F 74% 29.62 in 10.0 mi South 17.3 mph 31.1 mph N/A   Mostly Cloudy
1:26 AM 78.8 °F - 69.8 °F 74% 29.62 in 10.0 mi South 12.7 mph 24.2 mph N/A   Mostly Cloudy
1:33 AM 78.8 °F - 69.8 °F 74% 29.62 in 10.0 mi South 16.1 mph 26.5 mph N/A   Mostly Cloudy
1:53 AM 79.0 °F - 70.0 °F 74% 29.62 in 10.0 mi South 13.8 mph 26.5 mph N/A   Mostly Cloudy
2:18 AM 78.8 °F - 69.8 °F 74% 29.62 in 10.0 mi South 12.7 mph 23.0 mph N/A   Mostly Cloudy
2:53 AM 79.0 °F - 69.1 °F 72% 29.62 in 10.0 mi SSW 18.4 mph 26.5 mph N/A   Mostly Cloudy
3:48 AM 78.8 °F - 69.8 °F 74% 29.60 in 10.0 mi South 15.0 mph 21.9 mph N/A   Scattered Clouds
3:53 AM 79.0 °F - 70.0 °F 74% 29.61 in 10.0 mi SSW 17.3 mph 23.0 mph N/A   Scattered Clouds
4:44 AM 78.8 °F - 69.8 °F 74% 29.60 in 10.0 mi South 13.8 mph 27.6 mph N/A   Mostly Cloudy
4:53 AM 79.0 °F - 70.0 °F 74% 29.61 in 10.0 mi South 20.7 mph 27.6 mph N/A   Overcast
5:16 AM 78.8 °F - 69.8 °F 74% 29.59 in 10.0 mi South 12.7 mph 21.9 mph N/A   Mostly Cloudy
5:42 AM 78.8 °F - 69.8 °F 74% 29.60 in 10.0 mi South 17.3 mph 26.5 mph N/A   Mostly Cloudy
5:53 AM 79.0 °F - 70.0 °F 74% 29.62 in 10.0 mi South 15.0 mph 24.2 mph N/A   Scattered Clouds
6:10 AM 78.8 °F - 69.8 °F 74% 29.61 in 10.0 mi South 13.8 mph 28.8 mph N/A   Mostly Cloudy
6:22 AM 78.8 °F - 71.6 °F 78% 29.61 in 10.0 mi South 17.3 mph 26.5 mph N/A   Mostly Cloudy
6:30 AM 78.8 °F - 71.6 °F 78% 29.61 in 10.0 mi South 13.8 mph 24.2 mph N/A   Mostly Cloudy
6:50 AM 78.8 °F - 71.6 °F 78% 29.62 in 10.0 mi South 12.7 mph 26.5 mph N/A   Mostly Cloudy
6:53 AM 79.0 °F - 71.1 °F 77% 29.63 in 10.0 mi South 17.3 mph 26.5 mph N/A   Mostly Cloudy
7:49 AM 78.8 °F - 71.6 °F 78% 29.63 in 10.0 mi South 19.6 mph 32.2 mph N/A   Mostly Cloudy
7:53 AM 79.0 °F - 71.1 °F 77% 29.64 in 10.0 mi South 16.1 mph 26.5 mph N/A   Mostly Cloudy
8:53 AM 80.1 °F 83.6 °F 71.1 °F 74% 29.71 in 10.0 mi WSW 10.4 mph 21.9 mph N/A   Mostly Cloudy
9:36 AM 80.6 °F 85.4 °F 73.4 °F 79% 29.72 in 10.0 mi SW 10.4 mph 19.6 mph 0.01 in   Mostly Cloudy
9:53 AM 81.0 °F 85.8 °F 73.0 °F 77% 29.73 in 10.0 mi SW 10.4 mph - 0.01 in   Mostly Cloudy
10:53 AM 82.0 °F 86.3 °F 71.1 °F 69% 29.73 in 10.0 mi SW 15.0 mph 23.0 mph 0.00 in Rain Light Rain
11:53 AM 84.0 °F 89.0 °F 71.1 °F 65% 29.73 in 10.0 mi WSW 10.4 mph 20.7 mph 0.00 in   Mostly Cloudy
12:53 PM 86.0 °F 90.1 °F 69.1 °F 57% 29.70 in 10.0 mi SSW 12.7 mph 23.0 mph N/A   Partly Cloudy
1:51 PM 82.4 °F 85.4 °F 68.0 °F 62% 29.68 in 10.0 mi SSW 13.8 mph 21.9 mph N/A   Mostly Cloudy
1:53 PM 82.9 °F 86.5 °F 69.1 °F 63% 29.69 in 10.0 mi SSW 16.1 mph 21.9 mph N/A   Mostly Cloudy
2:53 PM 87.1 °F 92.8 °F 71.1 °F 59% 29.66 in 10.0 mi SSW 13.8 mph 20.7 mph N/A   Partly Cloudy
3:53 PM 89.1 °F 93.7 °F 69.1 °F 52% 29.65 in 10.0 mi South 13.8 mph - N/A   Partly Cloudy
4:53 PM 88.0 °F 92.1 °F 69.1 °F 53% 29.65 in 10.0 mi SSW 12.7 mph 18.4 mph N/A   Clear
5:53 PM 86.0 °F 89.4 °F 68.0 °F 55% 29.65 in 10.0 mi SSW 10.4 mph - N/A   Clear
6:53 PM 82.0 °F 83.0 °F 62.1 °F 51% 29.69 in 10.0 mi NNW 4.6 mph - N/A   Mostly Cloudy
7:53 PM 78.1 °F - 59.0 °F 52% 29.73 in 10.0 mi NW 9.2 mph - N/A   Mostly Cloudy
8:53 PM 77.0 °F - 60.1 °F 56% 29.76 in 10.0 mi Calm Calm - N/A   Overcast
9:03 PM 75.2 °F - 60.8 °F 61% 29.75 in 10.0 mi Calm Calm - N/A   Overcast
9:53 PM 75.0 °F - 62.1 °F 64% 29.78 in 10.0 mi Calm Calm - N/A   Overcast
10:53 PM 72.0 °F - 63.0 °F 73% 29.80 in 10.0 mi SSE 4.6 mph - N/A   Scattered Clouds
11:53 PM 75.9 °F - 71.1 °F 85% 29.80 in 10.0 mi South 6.9 mph - N/A   Partly Cloudy